Terminal Aerodrome Forecast
Issued by NWS Sterling, VA

Current Version | Previous Version | Graphics & Text | Print | Product List | Glossary On
Versions: 1 2 3 4 5 6 7 8 9 10 11 12 13 14 15 16 17 18 19 20 21 22 23 24 25 26
000
FTUS41 KLWX 290541
TAFIAD
TAF
KIAD 290541Z 2906/3012 08004KT 1SM -DZ BR OVC003
     FM291200 VRB03KT 2SM BR OVC008
     FM291300 VRB03KT 3SM BR BKN015
     FM291400 26005KT P6SM BKN025
     FM291600 28010KT P6SM SCT035 BKN250
     FM292200 30008KT P6SM SCT200
     FM300900 08004KT 4SM BR BKN025=

USA.gov is the U.S. government's official web portal to all federal, state and local government web resources and services.